Location: Czekanka
(50.4925°N, 19.2643°E)
Time: 08:16:16
(UTC+00:00)

SL-16 R/B - Pass Details

Date: 27 September 2024
Orbit: 842 x 846 km, 71.0° (Epoch: 05 October)

Event Time Altitude Azimuth Distance (km) Brightness Sun altitude
Rises 02:11:47 0° 329° (NNW) 3,412 5.3 -23.2°
Reaches altitude 10° 02:14:14 10° 328° (NNW) 2,472 4.6 -22.8°
Maximum altitude 02:19:53 74° 245° (WSW) 880 2.0 -22.0°
Drops below altitude 10° 02:25:30 10° 161° (SSE) 2,455 4.6 -21.2°
Sets 02:27:57 0° 159° (SSE) 3,386 5.3 -20.9°
